| time (UTC) | temp F | wind direction | speed MPH | gust MPH | rain 1hr in | rain 24hr in | rain mn in | humidity % | barometer mb |
| 20260505050829 | 76 | 6 | 0.0 | 0.0 | 0.00 | 0.00 | 0.00 | 81 | 1010.3 |
| 20260505050328 | 75 | 6 | 1.0 | 1.0 | 0.00 | 0.00 | 0.00 | 82 | 1010.2 |
| 20260505041757 | 76 | 6 | 1.0 | 1.0 | 0.00 | 0.00 | 0.00 | 81 | 1010.8 |
| 20260505041255 | 76 | 14 | 0.0 | 0.0 | 0.00 | 0.00 | 0.00 | 80 | 1010.9 |
| 20260505040752 | 76 | 14 | 0.0 | 0.0 | 0.00 | 0.00 | 0.00 | 81 | 1010.9 |
| 20260505040249 | 77 | 14 | 1.0 | 1.0 | 0.00 | 0.00 | 0.00 | 81 | 1010.9 |
| 20260505035746 | 77 | 14 | 0.0 | 1.0 | 0.00 | 0.00 | 0.00 | 80 | 1010.7 |
| 20260505035242 | 77 | 14 | 1.0 | 1.0 | 0.00 | 0.00 | 0.00 | 80 | 1011.2 |
| 20260505034739 | 77 | 14 | 1.0 | 1.0 | 0.00 | 0.00 | 0.00 | 80 | 1011.2 |
| 20260505034236 | 77 | 14 | 1.0 | 1.0 | 0.00 | 0.00 | 0.00 | 80 | 1011.0 |
| 20260505033733 | 77 | 14 | 0.0 | 0.0 | 0.00 | 0.00 | 0.00 | 80 | 1011.0 |
| 20260505033230 | 77 | 14 | 1.0 | 0.0 | 0.00 | 0.00 | 0.00 | 80 | 1011.1 |
| 20260505032728 | 77 | 14 | 0.0 | 0.0 | 0.00 | 0.00 | 0.00 | 80 | 1011.3 |
| 20260505032224 | 77 | 14 | 1.0 | 1.0 | 0.00 | 0.00 | 0.00 | 80 | 1011.2 |
| 20260505031722 | 77 | 14 | 0.0 | 0.0 | 0.00 | 0.00 | 0.00 | 80 | 1011.1 |
| 20260505031218 | 77 | 14 | 0.0 | 0.0 | 0.00 | 0.00 | 0.00 | 80 | 1011.3 |
| 20260505030715 | 77 | 14 | 0.0 | 0.0 | 0.00 | 0.00 | 0.00 | 81 | 1011.3 |
| 20260505030211 | 77 | 14 | 1.0 | 1.0 | 0.00 | 0.00 | 0.00 | 81 | 1011.2 |
| 20260505025707 | 77 | 14 | 1.0 | 1.0 | 0.00 | 0.00 | 0.00 | 81 | 1011.2 |
| 20260505025205 | 77 | 18 | 1.0 | 1.0 | 0.00 | 0.00 | 0.00 | 81 | 1011.1 |
| 20260505024703 | 77 | 23 | 1.0 | 2.0 | 0.00 | 0.00 | 0.00 | 81 | 1011.4 |
| 20260505024200 | 77 | 27 | 1.0 | 1.0 | 0.00 | 0.00 | 0.00 | 81 | 1011.1 |
| 20260505023657 | 77 | 14 | 1.0 | 1.0 | 0.00 | 0.00 | 0.00 | 81 | 1011.2 |
| 20260505023154 | 78 | 17 | 1.0 | 0.0 | 0.00 | 0.00 | 0.00 | 81 | 1011.3 |
| 20260505022652 | 78 | 17 | 0.0 | 0.0 | 0.00 | 0.00 | 0.00 | 81 | 1011.0 |
| 20260505022149 | 78 | 18 | 1.0 | 1.0 | 0.00 | 0.00 | 0.00 | 81 | 1011.2 |
| 20260505021645 | 78 | 17 | 1.0 | 1.0 | 0.00 | 0.00 | 0.00 | 81 | 1011.0 |
| 20260505021142 | 78 | 17 | 1.0 | 1.0 | 0.00 | 0.00 | 0.00 | 81 | 1011.0 |
| 20260505020637 | 78 | 19 | 1.0 | 1.0 | 0.00 | 0.00 | 0.00 | 81 | 1010.8 |
| 20260505020134 | 78 | 22 | 1.0 | 1.0 | 0.00 | 0.00 | 0.00 | 81 | 1010.8 |
| 20260505015631 | 78 | 21 | 0.0 | 0.0 | 0.00 | 0.00 | 0.00 | 80 | 1010.9 |
| 20260505015128 | 79 | 26 | 0.0 | 0.0 | 0.00 | 0.00 | 0.00 | 79 | 1010.9 |
| 20260505014624 | 80 | 28 | 1.0 | 1.0 | 0.00 | 0.00 | 0.00 | 78 | 1010.8 |
| 20260505014121 | 80 | 38 | 1.0 | 1.0 | 0.00 | 0.00 | 0.00 | 78 | 1010.7 |
| 20260505013619 | 80 | 39 | 1.0 | 1.0 | 0.00 | 0.00 | 0.00 | 77 | 1010.7 |
| 20260505013116 | 81 | 39 | 0.0 | 0.0 | 0.00 | 0.00 | 0.00 | 76 | 1010.6 |
| 20260505012614 | 81 | 38 | 1.0 | 1.0 | 0.00 | 0.00 | 0.00 | 76 | 1010.5 |
| 20260505012111 | 81 | 51 | 1.0 | 1.0 | 0.00 | 0.00 | 0.00 | 76 | 1010.4 |
| 20260505011606 | 81 | 51 | 1.0 | 1.0 | 0.00 | 0.00 | 0.00 | 76 | 1010.5 |
| 20260505011104 | 81 | 52 | 1.0 | 1.0 | 0.00 | 0.00 | 0.00 | 76 | 1010.3 |
| 20260505010604 | 81 | 52 | 1.0 | 1.0 | 0.00 | 0.00 | 0.00 | 75 | 1010.3 |
| 20260505005557 | 81 | 49 | 0.0 | 1.0 | 0.00 | 0.00 | 0.00 | 75 | 1010.3 |
| 20260505005055 | 81 | 45 | 1.0 | 1.0 | 0.00 | 0.00 | 0.00 | 75 | 1010.2 |
| 20260505004552 | 81 | 54 | 1.0 | 1.0 | 0.00 | 0.00 | 0.00 | 74 | 1009.9 |
| 20260505004049 | 82 | 58 | 1.0 | 1.0 | 0.00 | 0.00 | 0.00 | 74 | 1010.1 |
| 20260505003546 | 82 | 62 | 2.0 | 2.0 | 0.00 | 0.00 | 0.00 | 73 | 1010.0 |
| 20260505003043 | 82 | 45 | 1.0 | 1.0 | 0.00 | 0.00 | 0.00 | 73 | 1009.9 |
| 20260505002543 | 82 | 58 | 1.0 | 1.0 | 0.00 | 0.00 | 0.00 | 73 | 1009.8 |
| 20260505002043 | 82 | 55 | 2.0 | 2.0 | 0.00 | 0.00 | 0.00 | 73 | 1010.0 |
| 20260505001540 | 82 | 43 | 1.0 | 1.0 | 0.00 | 0.00 | 0.00 | 72 | 1009.9 |
| 20260505001037 | 82 | 63 | 1.0 | 1.0 | 0.00 | 0.00 | 0.00 | 72 | 1010.0 |
| 20260505000535 | 82 | 52 | 1.0 | 1.0 | 0.00 | 0.00 | 0.00 | 72 | 1009.9 |
| 20260505000032 | 82 | 50 | 1.0 | 1.0 | 0.00 | 0.00 | 0.00 | 72 | 1009.8 |
| 20260504235528 | 83 | 62 | 2.0 | 2.0 | 0.00 | 0.00 | 0.00 | 71 | 1009.9 |
| 20260504235025 | 83 | 37 | 2.0 | 2.0 | 0.00 | 0.00 | 0.00 | 71 | 1010.0 |
| 20260504234522 | 83 | 51 | 1.0 | 1.0 | 0.00 | 0.00 | 0.00 | 70 | 1009.9 |
| 20260504234019 | 83 | 35 | 3.0 | 2.0 | 0.00 | 0.00 | 0.00 | 70 | 1009.8 |
| 20260504233514 | 84 | 50 | 1.0 | 2.0 | 0.00 | 0.00 | 0.00 | 69 | 1009.7 |
| 20260504233012 | 84 | 62 | 2.0 | 2.0 | 0.00 | 0.00 | 0.00 | 69 | 1009.9 |
| 20260504232508 | 84 | 42 | 3.0 | 3.0 | 0.00 | 0.00 | 0.00 | 69 | 1009.8 |
| 20260504232006 | 84 | 79 | 3.0 | 3.0 | 0.00 | 0.00 | 0.00 | 69 | 1009.9 |
| 20260504231502 | 84 | 78 | 5.0 | 7.0 | 0.00 | 0.00 | 0.00 | 69 | 1009.8 |
| 20260504230959 | 84 | 130 | 2.0 | 2.0 | 0.00 | 0.00 | 0.00 | 68 | 1009.7 |
| 20260504230455 | 84 | 60 | 4.0 | 4.0 | 0.00 | 0.00 | 0.00 | 68 | 1009.7 |
| 20260504225954 | 84 | 64 | 2.0 | 2.0 | 0.00 | 0.00 | 0.00 | 69 | 1009.8 |
| 20260504225450 | 84 | 87 | 1.0 | 1.0 | 0.00 | 0.00 | 0.00 | 69 | 1009.7 |
| 20260504224948 | 84 | 66 | 3.0 | 3.0 | 0.00 | 0.00 | 0.00 | 69 | 1009.4 |
| 20260504224444 | 84 | 67 | 2.0 | 3.0 | 0.00 | 0.00 | 0.00 | 69 | 1009.4 |
| 20260504223941 | 84 | 82 | 3.0 | 3.0 | 0.00 | 0.00 | 0.00 | 69 | 1009.5 |
| 20260504223437 | 84 | 120 | 4.0 | 6.0 | 0.00 | 0.00 | 0.00 | 68 | 1009.4 |
| 20260504222933 | 84 | 99 | 6.0 | 7.0 | 0.00 | 0.00 | 0.00 | 68 | 1009.3 |
| 20260504222431 | 84 | 78 | 4.0 | 7.0 | 0.00 | 0.00 | 0.00 | 68 | 1009.3 |
| 20260504221929 | 85 | 104 | 6.0 | 7.0 | 0.00 | 0.00 | 0.00 | 67 | 1009.2 |
| 20260504221425 | 85 | 66 | 4.0 | 4.0 | 0.00 | 0.00 | 0.00 | 66 | 1009.3 |
| 20260504220922 | 85 | 52 | 3.0 | 3.0 | 0.00 | 0.00 | 0.00 | 66 | 1009.0 |
| 20260504220419 | 85 | 68 | 4.0 | 4.0 | 0.00 | 0.00 | 0.00 | 67 | 1009.0 |
| 20260504215916 | 85 | 114 | 5.0 | 6.0 | 0.00 | 0.00 | 0.00 | 66 | 1009.1 |
| 20260504215413 | 85 | 98 | 4.0 | 4.0 | 0.00 | 0.00 | 0.00 | 65 | 1009.0 |
| 20260504214909 | 86 | 75 | 4.0 | 6.0 | 0.00 | 0.00 | 0.00 | 64 | 1009.1 |
| 20260504214406 | 86 | 46 | 4.0 | 6.0 | 0.00 | 0.00 | 0.00 | 65 | 1008.8 |
| 20260504213902 | 86 | 61 | 4.0 | 4.0 | 0.00 | 0.00 | 0.00 | 64 | 1008.6 |
| 20260504213358 | 86 | 123 | 5.0 | 6.0 | 0.00 | 0.00 | 0.00 | 64 | 1008.9 |
| 20260504212856 | 86 | 71 | 4.0 | 4.0 | 0.00 | 0.00 | 0.00 | 63 | 1008.8 |
| 20260504212351 | 86 | 113 | 7.0 | 9.0 | 0.00 | 0.00 | 0.00 | 62 | 1008.7 |
| 20260504211850 | 86 | 110 | 5.0 | 6.0 | 0.00 | 0.00 | 0.00 | 63 | 1008.7 |
| 20260504211345 | 87 | 57 | 7.0 | 8.0 | 0.00 | 0.00 | 0.00 | 61 | 1008.7 |
| 20260504210843 | 87 | 59 | 3.0 | 4.0 | 0.00 | 0.00 | 0.00 | 61 | 1008.8 |
| 20260504210340 | 88 | 95 | 8.0 | 9.0 | 0.00 | 0.00 | 0.00 | 61 | 1008.8 |
| 20260504205837 | 88 | 71 | 5.0 | 7.0 | 0.00 | 0.00 | 0.00 | 60 | 1008.6 |
| 20260504205335 | 87 | 57 | 7.0 | 8.0 | 0.00 | 0.00 | 0.00 | 62 | 1008.7 |
| 20260504204833 | 87 | 57 | 7.0 | 8.0 | 0.00 | 0.00 | 0.00 | 61 | 1008.7 |
| 20260504204331 | 87 | 62 | 8.0 | 10.0 | 0.00 | 0.00 | 0.00 | 60 | 1008.8 |
| 20260504203830 | 88 | 129 | 10.0 | 13.0 | 0.00 | 0.00 | 0.00 | 60 | 1008.7 |
| 20260504203326 | 88 | 47 | 4.0 | 4.0 | 0.00 | 0.00 | 0.00 | 59 | 1008.5 |
| 20260504202822 | 88 | 61 | 8.0 | 10.0 | 0.00 | 0.00 | 0.00 | 58 | 1009.0 |
| 20260504202320 | 88 | 96 | 5.0 | 9.0 | 0.00 | 0.00 | 0.00 | 58 | 1008.9 |
| 20260504201816 | 88 | 142 | 7.0 | 9.0 | 0.00 | 0.00 | 0.00 | 59 | 1008.6 |
| 20260504201314 | 88 | 67 | 8.0 | 10.0 | 0.00 | 0.00 | 0.00 | 62 | 1008.6 |
| 20260504200811 | 88 | 153 | 8.0 | 8.0 | 0.00 | 0.00 | 0.00 | 61 | 1008.7 |
| 20260504200307 | 88 | 70 | 9.0 | 10.0 | 0.00 | 0.00 | 0.00 | 59 | 1008.8 |
| 20260504195803 | 89 | 131 | 6.0 | 6.0 | 0.00 | 0.00 | 0.00 | 58 | 1009.0 |
| 20260504195259 | 89 | 111 | 5.0 | 6.0 | 0.00 | 0.00 | 0.00 | 57 | 1008.9 |
| 20260504194756 | 88 | 131 | 7.0 | 8.0 | 0.00 | 0.00 | 0.00 | 56 | 1009.2 |
| 20260504194253 | 89 | 78 | 9.0 | 10.0 | 0.00 | 0.00 | 0.00 | 56 | 1009.0 |
| 20260504193749 | 89 | 58 | 5.0 | 6.0 | 0.00 | 0.00 | 0.00 | 55 | 1008.9 |
| 20260504193246 | 89 | 75 | 4.0 | 6.0 | 0.00 | 0.00 | 0.00 | 58 | 1009.1 |
| 20260504192745 | 89 | 89 | 10.0 | 10.0 | 0.00 | 0.00 | 0.00 | 54 | 1009.2 |
| 20260504192242 | 89 | 63 | 8.0 | 10.0 | 0.00 | 0.00 | 0.00 | 55 | 1009.3 |
| 20260504191741 | 89 | 66 | 8.0 | 9.0 | 0.00 | 0.00 | 0.00 | 55 | 1009.3 |
| 20260504191237 | 90 | 116 | 9.0 | 11.0 | 0.00 | 0.00 | 0.00 | 52 | 1009.2 |
| 20260504190733 | 90 | 66 | 7.0 | 10.0 | 0.00 | 0.00 | 0.00 | 54 | 1009.1 |
| 20260504190230 | 89 | 66 | 10.0 | 13.0 | 0.00 | 0.00 | 0.00 | 57 | 1009.2 |
| 20260504185726 | 90 | 88 | 10.0 | 11.0 | 0.00 | 0.00 | 0.00 | 58 | 1009.3 |
| 20260504185223 | 90 | 104 | 7.0 | 10.0 | 0.00 | 0.00 | 0.00 | 53 | 1009.3 |
| 20260504184719 | 89 | 117 | 7.0 | 8.0 | 0.00 | 0.00 | 0.00 | 54 | 1009.4 |
| 20260504184215 | 89 | 103 | 9.0 | 10.0 | 0.00 | 0.00 | 0.00 | 54 | 1009.6 |
| 20260504183711 | 89 | 66 | 9.0 | 10.0 | 0.00 | 0.00 | 0.00 | 54 | 1009.2 |
| 20260504183208 | 89 | 55 | 11.0 | 14.0 | 0.00 | 0.00 | 0.00 | 54 | 1009.5 |
| 20260504182706 | 89 | 126 | 9.0 | 11.0 | 0.00 | 0.00 | 0.00 | 55 | 1009.6 |
| 20260504182203 | 89 | 90 | 8.0 | 9.0 | 0.00 | 0.00 | 0.00 | 56 | 1009.5 |
| 20260504181701 | 89 | 87 | 10.0 | 14.0 | 0.00 | 0.00 | 0.00 | 56 | 1009.6 |
| 20260504181158 | 89 | 142 | 10.0 | 11.0 | 0.00 | 0.00 | 0.00 | 58 | 1009.8 |
| 20260504180657 | 89 | 52 | 11.0 | 14.0 | 0.00 | 0.00 | 0.00 | 57 | 1009.7 |
| 20260504180155 | 89 | 153 | 7.0 | 9.0 | 0.00 | 0.00 | 0.00 | 56 | 1009.6 |
| 20260504175652 | 89 | 74 | 6.0 | 8.0 | 0.00 | 0.00 | 0.00 | 57 | 1009.6 |
| 20260504175149 | 89 | 91 | 10.0 | 13.0 | 0.00 | 0.00 | 0.00 | 57 | 1009.7 |
| 20260504174647 | 90 | 84 | 7.0 | 9.0 | 0.00 | 0.00 | 0.00 | 58 | 1009.7 |
| 20260504174143 | 89 | 89 | 7.0 | 9.0 | 0.00 | 0.00 | 0.00 | 56 | 1010.0 |
| 20260504173641 | 89 | 114 | 10.0 | 10.0 | 0.00 | 0.00 | 0.00 | 58 | 1010.1 |
| 20260504173138 | 89 | 156 | 10.0 | 11.0 | 0.00 | 0.00 | 0.00 | 55 | 1010.1 |
| 20260504172634 | 90 | 127 | 9.0 | 10.0 | 0.00 | 0.00 | 0.00 | 55 | 1010.1 |
| 20260504172131 | 90 | 148 | 7.0 | 9.0 | 0.00 | 0.00 | 0.00 | 53 | 1010.2 |
| 20260504171627 | 91 | 67 | 14.0 | 17.0 | 0.00 | 0.00 | 0.00 | 53 | 1010.5 |
| 20260504171125 | 90 | 132 | 10.0 | 11.0 | 0.00 | 0.00 | 0.00 | 55 | 1010.2 |
| 20260504170621 | 90 | 97 | 7.0 | 9.0 | 0.00 | 0.00 | 0.00 | 55 | 1010.4 |
| 20260504170119 | 89 | 56 | 9.0 | 9.0 | 0.00 | 0.00 | 0.00 | 54 | 1010.4 |
| 20260504151004 | 89 | 128 | 8.0 | 9.0 | 0.00 | 0.00 | 0.00 | 53 | 1010.6 |
| 20260504150501 | 89 | 116 | 8.0 | 11.0 | 0.00 | 0.00 | 0.00 | 47 | 1010.5 |
| 20260504140927 | 87 | 62 | 9.0 | 11.0 | 0.00 | 0.00 | 0.00 | 59 | 1010.9 |
| 20260504140424 | 87 | 86 | 10.0 | 14.0 | 0.00 | 0.00 | 0.00 | 59 | 1010.8 |
| 20260504130349 | 86 | 78 | 11.0 | 11.0 | 0.00 | 0.00 | 0.00 | 61 | 1010.7 |
| 20260504120311 | 83 | 87 | 3.0 | 8.0 | 0.00 | 0.00 | 0.00 | 66 | 1010.6 |
| 20260504110236 | 77 | 357 | 1.0 | 1.0 | 0.00 | 0.00 | 0.00 | 77 | 1010.3 |
| 20260504100159 | 72 | 351 | 1.0 | 1.0 | 0.00 | 0.00 | 0.00 | 87 | 1010.0 |
| 20260504090122 | 72 | 351 | 0.0 | 0.0 | 0.00 | 0.00 | 0.00 | 87 | 1009.7 |
| 20260504081558 | 73 | 353 | 0.0 | 0.0 | 0.00 | 0.00 | 0.00 | 86 | 1009.3 |
| 20260504081054 | 73 | 354 | 0.0 | 0.0 | 0.00 | 0.00 | 0.00 | 86 | 1009.4 |
| 20260504080551 | 73 | 353 | 0.0 | 0.0 | 0.00 | 0.00 | 0.00 | 86 | 1009.4 |